Location: Keewatin
(47.4004°N, 93.0827°W)
Time: 15:27:39
(UTC+00:00)

KKS-1 - Pass Details

Date: 27 February 2020
Orbit: 637 x 650 km, 98.3° (Epoch: 01 April)

Event Time Altitude Azimuth Distance (km) Brightness Sun altitude
Rises 02:54:43 0° 7° (N) 2,951 ? -31.1°
Reaches altitude 10° 02:57:02 10° 359° (N) 2,037 ? -31.4°
Enters shadow 02:58:32 20° 348° (NNW) 1,503 ? -31.7°
